This demonstration page uses our WeatherBlox Daily Observations layout. Learn more.

Left ArrowRight Arrow

Hourly Observations for June 26, 2021

Temp ( °F °C ) Dew Point ( °F °C ) Humidity (%) Winds ( mph kmh ) Pressure ( in mb ) Visibility ( mi km ) Precip ( " mm )
12:59 am 00:59 Partly Cloudy 74 23.3 71 21.7 91 91 Calm 30.24 1024 8 13 0.00 0.00
1:59 am 01:59 Mostly Cloudy 76 24.4 71 21.7 85 85 SE 5 7 30.23 1024 8 13 0.00 0.00
2:59 am 02:59 Mostly Cloudy 75 23.9 72 22.2 90 90 SSE 3 6 30.23 1024 7 11 0.00 0.00
3:59 am 03:59 Mostly Cloudy 75 23.9 72 22.2 90 90 S 3 6 30.23 1024 7 11 0.00 0.00
4:21 am 04:21 Mostly Clear 75 23.9 72 22.2 90 90 SSE 3 6 30.23 1024 7 11 0.00 0.00
4:35 am 04:35 Mostly Cloudy 75 23.9 72 22.2 90 90 SSE 3 6 30.23 1024 7 11 0.00 0.00
4:47 am 04:47 Mostly Cloudy 75 23.9 72 22.2 90 90 SSE 3 6 30.23 1024 7 11 0.00 0.00
4:59 am 04:59 Mostly Cloudy 75 23.9 72 22.2 90 90 SE 3 6 30.23 1024 7 11 0.00 0.00
5:06 am 05:06 Mostly Cloudy 74 23.3 71 21.7 91 91 SE 5 7 30.23 1024 7 11 0.00 0.00
5:17 am 05:17 Mostly Cloudy with Mist and Fog 75 23.9 72 22.2 90 90 SE 5 7 30.23 1024 6 10 0.00 0.00
5:59 am 05:59 Mostly Cloudy with Mist and Fog 75 23.9 72 22.2 90 90 SSE 5 7 30.23 1024 5 8 0.00 0.00
6:37 am 06:37 Mostly Cloudy with Mist and Fog 75 23.9 72 22.2 90 90 SSE 5 7 30.24 1024 5 8 0.00 0.00
6:59 am 06:59 Mostly Cloudy 76 24.4 73 22.8 91 91 SSE 6 9 30.25 1024 7 11 0.00 0.00
7:59 am 07:59 Mostly Cloudy 78 25.6 73 22.8 85 85 SSE 8 13 30.24 1024 7 11 0.00 0.00
8:59 am 08:59 Mostly Cloudy 81 27.2 73 22.8 77 77 SSW 7 11 30.26 1025 8 13 0.00 0.00
9:59 am 09:59 Mostly Cloudy 83 28.3 72 22.2 70 70 SW 8 13 30.25 1024 9 14 0.00 0.00
10:59 am 10:59 Mostly Cloudy 82 27.8 71 21.7 69 69 S 7 11 30.25 1025 9 14 0.00 0.00
11:50 am 11:50 Cloudy with Rain 80 26.7 72 22.2 76 76 SSW 10 17 30.26 1025 2 2 0.08 2.03
11:57 am 11:57 Cloudy with Light Rain 79 26 73 23 84 84 S 10 17 30.27 1025 1 1 0.15 3.81
11:59 am 11:59 Cloudy with Heavy Rain 77 25 72 22.2 85 85 S 9 15 30.27 1025 1 1 0.17 4.32
12:05 pm 12:05 Cloudy with Thunderstorms 76 24.4 71 21.7 85 85 S 12 19 30.27 1025 1 2 0.02 0.51
12:10 pm 12:10 Cloudy with Strong Thunderstorms 75 23.9 71 21.7 88 88 S 9 15 30.27 1025 1 1 0.13 3.30
12:20 pm 12:20 Cloudy with Thunderstorms 74 23.3 70 21.1 88 88 SE 5 7 30.27 1025 2 2 0.23 5.84
12:27 pm 12:27 Cloudy with Thunderstorms 75 23.9 70 21.1 84 84 S 5 7 30.27 1025 8 13 0.23 5.84
12:59 pm 12:59 Cloudy with Thunderstorms 76 24.4 71 21.7 85 85 ESE 6 9 30.26 1025 10 16 0.25 6.35
1:17 pm 13:17 Mostly Cloudy 77 25 72 22.2 85 85 ESE 5 7 30.26 1025 10 16 0.00 0.00
1:59 pm 13:59 Mostly Cloudy 79 26.1 74 23.3 85 85 ENE 7 11 30.24 1024 10 16 0.00 0.00
2:59 pm 14:59 Mostly Cloudy 81 27.2 73 22.8 77 77 SE 9 15 30.24 1024 10 16 0.00 0.00
3:28 pm 15:28 Cloudy with Thunderstorms 80 26.7 74 23.3 82 82 S 15 24 30.25 1024 6 10 0.00 0.00
3:30 pm 15:30 Cloudy with Thunderstorms 79 26.1 74 23.3 85 85 S 15 24 30.26 1025 2 2 0.04 1.02
3:32 pm 15:32 Cloudy with Thunderstorms 77 25 73 22.8 88 88 SSW 17 28 30.26 1025 1 1 0.08 2.03
3:49 pm 15:49 Cloudy with Thunderstorms 76 24.4 70 21.1 82 82 SSE 8 13 30.24 1024 2 3 0.36 9.14
3:56 pm 15:56 Cloudy with Thunderstorms 75 24 72 22 89 89 SSW 7 11 30.24 1024 5 8 0.36 9.14
3:59 pm 15:59 Cloudy with Thunderstorms 76 24.4 72 22.2 88 88 SSW 7 11 30.24 1024 8 13 0.36 9.14
4:28 pm 16:28 Cloudy with Thunderstorms 77 25 72 22.2 85 85 SW 3 6 30.24 1024 5 8 0.01 0.25
4:40 pm 16:40 Cloudy with Light Rain 76 24.4 72 22.2 88 88 Calm 30.24 1024 4 6 0.03 0.76
4:59 pm 16:59 Cloudy with Light Rain 77 25 72 22.2 85 85 SE 5 7 30.23 1024 9 14 0.04 1.02
5:59 pm 17:59 Cloudy 80 26.7 75 23.9 85 85 SSE 3 6 30.22 1023 10 16 0.00 0.00
6:59 pm 18:59 Mostly Cloudy 80 26.7 75 23.9 85 85 S 5 7 30.21 1023 8 13 0.00 0.00
7:59 pm 19:59 Mostly Cloudy 80 26.7 75 23.9 85 85 S 3 6 30.21 1023 7 11 0.00 0.00
8:59 pm 20:59 Mostly Cloudy 78 25.6 74 23.3 87 87 S 3 6 30.20 1023 9 14 0.00 0.00
9:59 pm 21:59 Partly Cloudy 77 25 73 22.8 88 88 SSE 5 7 30.22 1023 9 14 0.00 0.00
10:59 pm 22:59 Partly Cloudy 77 25 72 22.2 85 85 SSE 7 11 30.22 1024 9 14 0.00 0.00
11:59 pm 23:59 Mostly Clear 76 24.4 72 22.2 88 88 S 6 9 30.23 1024 9 14 0.00 0.00

Powered by AerisWeather